User: anonymous   Login
Location: Unspecified
(48.7971°N, 123.6320°W)
Time: 22:06:09
(UTC-07:00)
Language:

Okean 3 - Orbit

View from above orbital plane
View from above orbital plane
View from above satellite
View from above satellite

Ground track
Ground track

The orbit data is extracted from the following two-line orbital elements,

1 21397U 91039A   19228.74013810 +.00000124 +00000-0 +93538-5 0  9990
2 21397 082.5213 107.2713 0019300 110.7338 249.5953 14.92825147506654
Epoch (UTC): 16 August 2019 17:45:47
Eccentricity: 0.0019300
inclination: 82.5213°
perigee height: 575 km
apogee height: 602 km
right ascension of ascending node: 107.2713°
argument of perigee: 110.7338°
revolutions per day: 14.92825147
mean anomaly at epoch: 249.5953°
orbit number at epoch: 50665

The dashed part of the orbit path shows where the satellite is in the earth's shadow,  

DLR